This is the latest recevied weather packets stored in our database for station/object HB9TJM-8. If no packets are shown the sender has not sent any weather packets the latest 1 day(s).
| Time | Temp. | Humidity | Pressure | Rain* | Wind** | Luminosity | Snow |
|---|---|---|---|---|---|---|---|
| 1777974513 | 10.56° C | 88% | 1010.7 hPa | 0 mm | 1.79 m/s, 184° | 351 W/m² | - |
| 1777974206 | 10.56° C | 87% | 1010.9 hPa | 0 mm | 1.79 m/s, 172° | 326 W/m² | - |
| 1777973898 | 10.56° C | 87% | 1010.7 hPa | 0 mm | 1.79 m/s, 180° | 284 W/m² | - |
| 1777973284 | 10.56° C | 91% | 1010.6 hPa | 0 mm | 1.34 m/s, 187° | 198 W/m² | - |
| 1777972976 | 10.56° C | 87% | 1011 hPa | 0 mm | 1.34 m/s, 142° | 258 W/m² | - |
| 1777972361 | 10.56° C | 89% | 1011.1 hPa | 0 mm | 0.89 m/s, 127° | 263 W/m² | - |
| 1777972053 | 10.56° C | 86% | 1010.7 hPa | 0 mm | 1.34 m/s, 139° | 231 W/m² | - |
| 1777971438 | 10.56° C | 79% | 1010.8 hPa | 0 mm | 0 m/s | 191 W/m² | - |
| 1777971130 | 10.56° C | 85% | 1010.9 hPa | 0 mm | 0 m/s | 231 W/m² | - |
| 1777970822 | 10° C | 88% | 1010.3 hPa | 0 mm | 0 m/s | 226 W/m² | - |
| 1777970517 | 10° C | 88% | 1010.6 hPa | 0 mm | 1.34 m/s, 106° | 202 W/m² | - |
| 1777970206 | 10° C | 88% | 1011.1 hPa | 0 mm | 0 m/s | 207 W/m² | - |
| 1777969898 | 10° C | 85% | 1010.8 hPa | 0 mm | 0.45 m/s, 162° | 189 W/m² | - |
| 1777969591 | 9.44° C | 84% | 1010.9 hPa | 0 mm | 0.89 m/s, 194° | 171 W/m² | - |
| 1777969284 | 9.44° C | 84% | 1011 hPa | 0 mm | 0.89 m/s, 124° | 151 W/m² | - |
| 1777968976 | 8.89° C | 87% | 1010.7 hPa | 0 mm | 0.45 m/s, 24° | 183 W/m² | - |
| 1777968668 | 8.89° C | 91% | 1010.5 hPa | 0 mm | 0.89 m/s, 6° | 170 W/m² | - |
| 1777968361 | 8.89° C | 92% | 1010.4 hPa | 0 mm | 0 m/s | 141 W/m² | - |
| 1777968053 | 8.89° C | 88% | 1010.4 hPa | 0 mm | 0.89 m/s, 51° | 127 W/m² | - |
| 1777967745 | 8.89° C | 89% | 1010.8 hPa | 0 mm | 0.89 m/s, 346° | 137 W/m² | - |
| 1777967438 | 8.89° C | 89% | 1010.8 hPa | 0 mm | 0.89 m/s, 191° | 131 W/m² | - |
| 1777967130 | 8.89° C | 88% | 1010.7 hPa | 0 mm | 0 m/s | 117 W/m² | - |
| 1777966823 | 8.89° C | 90% | 1010.7 hPa | 0 mm | 0.45 m/s, 306° | 95 W/m² | - |
| 1777966515 | 8.89° C | 92% | 1010.8 hPa | 0 mm | 0 m/s | 95 W/m² | - |
| 1777966207 | 8.89° C | 93% | 1010.7 hPa | 0 mm | 0.45 m/s, 11° | 126 W/m² | - |
* Rain latest hour (hover to see other rain measurements)
** Current wind speed in m/s (hover to see current wind gust speed)